Zurück zum Katalog

THORAD AGENA D DEB

AktivPO
NORAD 42551·DEBRIS·🇺🇸 United States

Gestartet Apr 8, 1970 von Vandenberg Space Force Base

Loading…

Nächste Überflüge (nächste 24 Stunden)

TLE

AlterndSource: Space-Track

Epoche: Sep 9, 2026, 12:15 UTC

1 42551U 70025TH  26252.51054007  .00001335  00000-0  90636-3 0  9999
2 42551  99.9736 334.2031 0013470 184.0195 176.0861 14.02159004651457

Verfolge THORAD AGENA D DEB in Echtzeit mit AllMySat

Download on the App Store